Weather in Grachyovka

Russia / Stavropol Krai     45°12′23″N   42°24′47″E
temp.,
°C
wind,
m/s
gust,
m/s
humid.,
%
clouds,
%
prec.,
mm/h
press.,
hPa
HPBL,
m
7 may, fri
fri700:00+11se51162100 0.0 1014339
03:00+10sse366399 0.0 1014140
06:00+10sse247289 0.0 1015102
09:00+17w366852 0.0 1016662
12:00+20w58434 0.0 10161336
15:00+20wnw57450 0.0 10161447
18:00+18wnw34615 0.0 1017178
21:00+13w227277 0.0 101910
8 may, sat
sat800:00+12sw117512 0.0 101811
03:00+12se117869 0.0 101810
06:00+12se22785 0.0 101747
09:00+18se4659100 0.0 1016694
12:00+21se6749100 0.0 10141336
15:00+22se5649100 0.0 10131462
18:00+20sse3766100 0.0 1012200
21:00+16se337070 0.0 101235
9 may, sun
sun900:00+13se3474100 0.0 101166
03:00+13sse3468100 0.0 101085
06:00+14wnw4117596 0.0 1010464
09:00+15nw467569 0.0 1010505
12:00+17wnw677096 0.1 10101209
15:00+8wnw91393100 4.3 1016849
18:00+7wnw81192100 5.9 10191127
21:00+7w7139073 6.3 1020895
10 may, mon
mon1000:00+7w61291100 0.1 1021484
03:00+6w6139093 0.1 1021398
06:00+5wsw511915 0.0 1021400
09:00+10w811645 0.0 10201356
12:00+12w9115567 0.4 10192022
15:00+11w9116352 0.9 10191499
18:00+9wnw610787 0.3 1019966
21:00+6w51184100 0.3 1020621
11 may, tue
tue1100:00+6sw488499 0.0 1020705
03:00+6ssw248099 0.0 1020157
06:00+6se3585100 0.0 1020198
09:00+11se796797 0.0 10191264
12:00+12se8106198 0.1 10181687
15:00+13ese8961100 0.1 10181726
18:00+11ese5975100 0.1 1019929
21:00+9e4107871 0.1 1019372